カタログに戻る

STARLINK-32611

運用中通信VLEO
NORAD 61976·PAYLOAD·🇺🇸 United States

打ち上げ Nov 14, 2024 から Cape Canaveral Space Force Station

Loading…

次のパス (今後24時間)

TLE

最新Source: CelesTrak SupGP

元期: Sep 15, 2026, 02:18 UTC

1 61976C 24210T   26258.09631944 -.00059911  00000+0 -21703-2 0  2586
2 61976  43.0028 190.1443 0001432 274.6646 219.5238 15.27603291    12

AllMySatでSTARLINK-32611をリアルタイム追跡

Download on the App Store